This is the latest recevied weather packets stored in our database for station/object IW1PPB-3. If no packets are shown the sender has not sent any weather packets the latest 10 day(s).
| Time | Temp. | Humidity | Pressure | Rain* | Wind** | Luminosity | Snow |
|---|---|---|---|---|---|---|---|
| 1777951416 | 13.33° C | 92% | 1011.9 hPa | 38.1 mm | - | - | - |
| 1777950828 | 13.89° C | 92% | 1012.4 hPa | 36.07 mm | - | - | - |
| 1777950219 | 13.33° C | 91% | 1012.3 hPa | 36.07 mm | - | - | - |
| 1777949605 | 13.33° C | 91% | 1012.1 hPa | 36.07 mm | - | - | - |
| 1777949021 | 13.33° C | 91% | 1012 hPa | 36.07 mm | - | - | - |
| 1777948420 | 13.33° C | 91% | 1012 hPa | 34.04 mm | - | - | - |
| 1777947808 | 13.89° C | 92% | 1012.1 hPa | 35.05 mm | - | - | - |
| 1777947213 | 13.89° C | 92% | 1012 hPa | 40.89 mm | - | - | - |
| 1777946618 | 14.44° C | 92% | 1012.3 hPa | 53.09 mm | - | - | - |
| 1777946016 | 14.44° C | 92% | 1012.5 hPa | 53.09 mm | - | - | - |
| 1777945428 | 14.44° C | 92% | 1012.6 hPa | 53.09 mm | - | - | - |
| 1777944828 | 14.44° C | 92% | 1012.6 hPa | 52.07 mm | - | - | - |
| 1777944210 | 15° C | 92% | 1012.7 hPa | 52.07 mm | - | - | - |
| 1777943612 | 16.11° C | 91% | 1012.8 hPa | 49.02 mm | - | - | - |
| 1777943016 | 16.67° C | 92% | 1012.8 hPa | 39.12 mm | - | - | - |
| 1777942415 | 16.67° C | 92% | 1013.1 hPa | 44.96 mm | - | - | - |
| 1777941811 | 16.67° C | 92% | 1013.4 hPa | 44.96 mm | - | - | - |
| 1777941223 | 16.67° C | 92% | 1013.5 hPa | 43.94 mm | - | - | - |
| 1777940623 | 16.67° C | 92% | 1013.5 hPa | 43.94 mm | - | - | - |
| 1777940006 | 16.67° C | 92% | 1013.6 hPa | 45.97 mm | - | - | - |
| 1777939413 | 16.67° C | 92% | 1013.8 hPa | 43.94 mm | - | - | - |
| 1777938824 | 17.22° C | 91% | 1013.9 hPa | 41.91 mm | - | - | - |
| 1777938223 | 17.22° C | 91% | 1014.1 hPa | 42.93 mm | - | - | - |
| 1777937612 | 17.22° C | 91% | 1014.2 hPa | 55.12 mm | - | - | - |
| 1777937028 | 16.67° C | 91% | 1014.3 hPa | 62.99 mm | - | - | - |
* Rain latest hour (hover to see other rain measurements)
** Current wind speed in m/s (hover to see current wind gust speed)